Tracking 19570 objects as of 22-Feb-2019
HD Live streaming from Space Station
objects crossing your sky now

COSMOS 292

Track COSMOS 292 now!
10-day predictions
COSMOS 292 is classified as:


NORAD ID: 4070
Int'l Code: 1969-070A
Perigee: 713.2 km
Apogee: 729.2 km
Inclination: 74.0 °
Period: 99.1 minutes
Semi major axis: 7092 km
RCS: 2.416 m2 (large)
Launch date: August 13, 1969
Source: Commonwealth of Independent States (former USSR) (CIS)
Launch site: PLESETSK MISSILE AND SPACE COMPLEX (PKMTR)
aabbcc
Your satellite tracking list
Your tracking list is empty




NASA's NSSDC Master Catalog

Two Line Element Set (TLE):
1  4070U 69070A   19052.16654602 +.00000025 +00000-0 +12815-4 0  9998
2  4070 074.0497 314.2433 0011284 235.0994 124.9109 14.53551751617582
Source of the keplerian elements: AFSPC